NOAA NWS Hourly Roundups by Site

Regional Weather Roundup for Green Bay, WI

To Select Another Site Choose from List

Select Site:  

000
ASUS43 KGRB 270911
RWRGRB

NORTH-CENTRAL AND NORTHEAST WISCONSIN REGIONAL WEATHER ROUNDUP
NATIONAL WEATHER SERVICE GREEN BAY WI
300 AM CST WED JAN 27 2021

WIZ005-009-010>012-018-019-271000-
NORTH CENTRAL WISCONSIN

CITY           SKY/WX    TMP DP  RH WIND       PRES   REMARKS
IRONWOOD       FLURRIES   9   5  84 W6        30.32R WCI  -1
MANITOWISH WTR LGT SNOW   6   2  86 CALM      30.28R
ARBOR VITAE    FLURRIES   5  -3  68 CALM      30.28R
EAGLE RIVER    FLURRIES   9   4  80 NW3       30.27R
LAND O LAKES   FLURRIES  11   7  82 N3        30.28R
RHINELANDER    CLOUDY     0  -4  83 CALM      30.28R
PHILLIPS       PTCLDY   -12 -16  83 CALM      30.32R
ANTIGO         CLOUDY     0  -4  86 CALM      30.30R
TOMAHAWK       MOCLDY    -8 -12  83 CALM      30.30R
MERRILL        PTCLDY    -4  -7  86 CALM      30.32R
$$

WIZ013-073-271000-
NORTHEAST WISCONSIN

CITY           SKY/WX    TMP DP  RH WIND       PRES   REMARKS
IRON MOUNTAIN  CLOUDY    13   4  67 N7        30.29R WCI   3
MARINETTE      CLOUDY    12   6  77 N6        30.36R WCI   3
OCONTO         CLOUDY    10   4  80 NW3       30.36R
$$

WIZ017-030-035>037-045-271000-
CENTRAL WISCONSIN

CITY           SKY/WX    TMP DP  RH WIND       PRES   REMARKS
MEDFORD        PTCLDY    -2  -4  90 CALM      30.32R
WAUSAU         PTCLDY     2  -2  83 CALM      30.32R
MOSINEE        PTCLDY     3   0  85 NW5       30.35R WCI  -6
MARSHFIELD     PTCLDY     1  -3  83 NW6       30.34R WCI -10
WISC RAPIDS    PTCLDY     6   3  87 CALM      30.37R
STEVENS POINT  PTCLDY    -2  -6  84 CALM      30.35R
WAUPACA        PTCLDY     7   2  81 NW5       30.37R WCI  -2
SHAWANO        PTCLDY     7   4  86 CALM      30.36R
CLINTONVILLE   PTCLDY     7   2  82 NW3       30.36R
WAUTOMA        PTCLDY     0  -4  83 CALM      30.37R
$$

WIZ038-039-048-051-271000-
FOX VALLEY

CITY           SKY/WX    TMP DP  RH WIND       PRES   REMARKS
NWS GREEN BAY  MOCLDY    10   2  69 N9        30.36R WCI  -3
APPLETON       PTCLDY    10   0  61 NW7       30.33R WCI   0
OSHKOSH        PTCLDY    11   4  73 NW6       30.35R WCI   1
FOND DU LAC    PTCLDY    10   5  80 NW6       30.35R WCI   0
$$

WIZ022-050-052-271000-
EAST CENTRAL WISCONSIN

CITY           SKY/WX    TMP DP  RH WIND       PRES   REMARKS
EPHRAIM        CLOUDY    17   9  71 N10       30.31R WCI   4
WASHINGTON ISL CLOUDY    17  10  73 NW9       30.31R WCI   5
STURGEON BAY   CLOUDY    16  10  77 N10       30.33R WCI   4
MANITOWOC      PTCLDY    10   6  84 NW8       30.34R WCI  -2
SHEBOYGAN      MOCLDY    11   4  73 NW10      30.33R WCI  -3
$$

LMZ563-521-522-541>543-271000-
LAKESHORE

STATION/POSITION TIME  TEMP    WIND        PRES    VSBY  WAVE
                       AIR SEA DIR/SP/G                  HT/PER
                 (UTC) (F)     (DEG/KT/KT) (MB)    (MI)  (FT/S)
SHEBOYGAN LKSHOR 0800   15     330/ 13/ 15   N/A
KEWAUNEE LKSHORE 0824   15     320/  5/  9 1026.0
MENOMINEE LKSHOR 0824   13 36  310/  5/  9 1027.1
$$


 

View Past Reports for Green Bay, WI.

Products Courtesy of NOAA-NWS
NWS Information Parsing Script by Ken True at Saratoga Weather - Script by SE Lincoln Weather.